Flag for Canada Weather past 2 weeks in Thunder Bay, Ontario, Canada

Now
9 °F

Light snow. Overcast.


Feels Like: 9 °F
Forecast: 3 / 26 °F
Wind: No wind

Location: Thunder Bay

Current Time: Jan 26, 2015 at 4:09:53 AM

Latest Report: Jan 26, 2015 at 3:00 AM


Visibility: 6 mi

Pressure: 29.95 "Hg

Humidity: 85%

Dew point: 5 °F

Location of Thunder BayLocation

Historic Weather in Thunder Bay — Graph

°F

Thunder Bay temperature yesterday

Maximum temperature yesterday: 12 °F (at 4:00 PM)
Minimum temperature yesterday: -13 °F (at 6:00 AM)
Average temperature yesterday: -1 °F

Past Weeks' High & Low Weather Summary

 TemperatureHumidityPressure
High39 °F (Jan 23, 1:00 PM)100% (Jan 14, 11:00 PM)30.83 "Hg (Jan 14, 11:00 PM)
Low-26 °F (Jan 13, 9:00 AM)40% (Jan 25, 3:00 PM)29.32 "Hg (Jan 17, 5:00 PM)
Average11 °F76%30.08 "Hg
* Reported Jan 11 3:00 AM — Jan 26 3:00 AM, Thunder Bay, Weather by CustomWeather, © 2014

Note: Actual official high and low records may vary slightly from our data, if they occured in-between our weather recording intervals... More about our weather records

Advertising

Thunder Bay weather history for previous 24 hours

 ConditionsComfort  
Time TempWeatherWind HumidityBarometerVisibility
3:00 AM
Jan 26
9 °FLight snow. Overcast.No wind85%29.95 "Hg6 mi
2:49 AM9 °FLight snow. Overcast.3 mph85%29.95 "Hg2 mi
2:00 AM7 °FLight snow. Overcast.No wind85%29.96 "Hg15 mi
1:00 AM7 °FLight snow. Mostly cloudy.3 mph78%30.01 "Hg15 mi
12:00 AM7 °FLight snow. Mostly cloudy.2 mph78%30.03 "Hg15 mi
11:00 PM
Jan 25
5 °FLight snow. Overcast.3 mph78%30.06 "Hg10 mi
10:00 PM1 °FLight snow. Mostly cloudy.2 mph78%30.11 "Hg12 mi
9:51 PM1 °FLight snow. Mostly cloudy.5 mph78%30.11 "Hg15 mi
9:00 PM1 °FPassing clouds.5 mph78%30.13 "Hg15 mi
8:00 PM5 °FPassing clouds.No wind72%30.14 "Hg15 mi
7:00 PM3 °FPassing clouds.3 mph72%30.18 "Hg15 mi
6:00 PM7 °FPassing clouds.6 mph72%30.17 "Hg20 mi
5:00 PM10 °FScattered clouds.6 mph61%30.16 "Hg20 mi
4:00 PM12 °FPassing clouds.2 mph40%30.16 "Hg20 mi
3:00 PM10 °FPassing clouds.No wind40%30.19 "Hg20 mi
2:00 PM7 °FScattered clouds.No wind51%30.21 "Hg20 mi
1:00 PM5 °FPartly sunny.5 mph55%30.23 "Hg20 mi
12:00 PM1 °FPartly sunny.6 mph65%30.24 "Hg20 mi
11:00 AM-2 °FFrigid.5 mph71%30.23 "Hg20 mi
10:00 AM-9 °FBroken clouds.3 mph84%30.22 "Hg20 mi
9:00 AM-13 °FPartly sunny.3 mph76%30.20 "Hg20 mi
8:00 AM-13 °FPassing clouds.5 mph76%30.19 "Hg15 mi
7:00 AM-13 °FClear.3 mph83%30.18 "Hg15 mi
6:00 AM-13 °FClear.3 mph83%30.15 "Hg15 mi
5:00 AM-11 °FClear.3 mph84%30.14 "Hg15 mi
4:00 AM-9 °FClear.3 mph84%30.12 "Hg15 mi
Weather by CustomWeather, © 2014

See weather overviewHow to use our weather pages